Time,TemperatureF,DewpointF,PressureIn,WindDirection,WindDirectionDegrees,WindSpeedMPH,WindSpeedGustMPH,Humidity,HourlyPrecipIn,Conditions,Clouds,dailyrainin,SolarRadiationWatts/m^2,SoftwareType,DateUTC
2013-06-20 00:01:00,65.0,-1.0,-100.00,SW,222,6.0,15.0,7,0.00,,,0.00,0.000000,,2013-06-20 06:01:00,
2013-06-20 00:11:00,65.0,-1.0,-100.00,SW,222,6.0,15.0,7,0.00,,,0.00,0.000000,,2013-06-20 06:11:00,
2013-06-20 00:34:00,63.0,1.0,-100.00,SW,233,7.0,14.0,8,0.00,,,0.00,0.000000,,2013-06-20 06:34:00,
2013-06-20 00:43:00,63.0,1.0,-100.00,SW,233,7.0,14.0,8,0.00,,,0.00,0.000000,,2013-06-20 06:43:00,
2013-06-20 00:53:00,63.0,1.0,-100.00,SW,233,7.0,14.0,8,0.00,,,0.00,0.000000,,2013-06-20 06:53:00,
2013-06-20 01:01:00,63.0,1.0,-100.00,SW,233,7.0,14.0,8,0.00,,,0.00,0.000000,,2013-06-20 07:01:00,
2013-06-20 01:34:00,63.0,3.0,-100.00,West,260,9.0,15.0,9,-99.99,,,0.00,0.000000,,2013-06-20 07:34:00,
2013-06-20 01:44:00,63.0,3.0,-100.00,West,260,9.0,15.0,9,-99.99,,,0.00,0.000000,,2013-06-20 07:44:00,
2013-06-20 01:53:00,63.0,3.0,-100.00,West,260,9.0,15.0,9,-99.99,,,0.00,0.000000,,2013-06-20 07:53:00,
2013-06-20 02:34:00,61.0,2.0,-100.00,WSW,238,7.0,19.0,9,-99.99,,,0.00,0.000000,,2013-06-20 08:34:00,
2013-06-20 02:43:00,61.0,2.0,-100.00,WSW,238,7.0,19.0,9,-99.99,,,0.00,0.000000,,2013-06-20 08:43:00,
2013-06-20 02:53:00,61.0,2.0,-100.00,WSW,238,7.0,19.0,9,-99.99,,,0.00,0.000000,,2013-06-20 08:53:00,
2013-06-20 03:33:00,59.0,5.0,-100.00,SW,216,7.0,13.0,11,-99.99,,,0.00,0.000000,,2013-06-20 09:33:00,
2013-06-20 03:43:00,59.0,5.0,-100.00,SW,216,7.0,13.0,11,-99.99,,,0.00,0.000000,,2013-06-20 09:43:00,
2013-06-20 04:01:00,59.0,5.0,-100.00,SW,216,7.0,13.0,11,-99.99,,,0.00,0.000000,,2013-06-20 10:01:00,
2013-06-20 04:34:00,58.0,6.0,-100.00,SW,233,9.0,15.0,12,-99.99,,,0.00,0.000000,,2013-06-20 10:34:00,
2013-06-20 04:43:00,58.0,6.0,-100.00,SW,233,9.0,15.0,12,-99.99,,,0.00,0.000000,,2013-06-20 10:43:00,
2013-06-20 04:53:00,58.0,6.0,-100.00,SW,233,9.0,15.0,12,-99.99,,,0.00,0.000000,,2013-06-20 10:53:00,
2013-06-20 05:34:00,57.0,7.0,-100.00,West,274,10.0,17.0,13,-99.99,,,0.00,0.000000,,2013-06-20 11:34:00,
2013-06-20 05:43:00,57.0,7.0,-100.00,West,274,10.0,17.0,13,-99.99,,,0.00,0.000000,,2013-06-20 11:43:00,
2013-06-20 06:34:00,56.0,7.0,-100.00,WNW,289,9.0,15.0,14,-99.99,,,0.00,2.000000,,2013-06-20 12:34:00,
2013-06-20 06:43:00,56.0,7.0,-100.00,WNW,289,9.0,15.0,14,-99.99,,,0.00,2.000000,,2013-06-20 12:43:00,
2013-06-20 07:11:00,56.0,7.0,-100.00,WNW,289,9.0,15.0,14,-99.99,,,0.00,2.000000,,2013-06-20 13:11:00,
2013-06-20 07:33:00,56.0,9.0,-100.00,SSW,198,6.0,13.0,15,-99.99,,,0.00,69.000000,,2013-06-20 13:33:00,
2013-06-20 07:42:00,56.0,9.0,-100.00,SSW,198,6.0,13.0,15,-99.99,,,0.00,69.000000,,2013-06-20 13:42:00,
2013-06-20 07:53:00,56.0,9.0,-100.00,SSW,198,6.0,13.0,15,-99.99,,,0.00,69.000000,,2013-06-20 13:53:00,
2013-06-20 08:01:00,56.0,9.0,-100.00,SSW,198,6.0,13.0,15,-99.99,,,0.00,69.000000,,2013-06-20 14:01:00,
2013-06-20 08:11:00,56.0,9.0,-100.00,SSW,198,6.0,13.0,15,-99.99,,,0.00,69.000000,,2013-06-20 14:11:00,
2013-06-20 08:33:00,60.0,14.0,-100.00,South,185,6.0,9.0,16,0.00,,,0.00,303.000000,,2013-06-20 14:33:00,
2013-06-20 08:42:00,60.0,14.0,-100.00,South,185,6.0,9.0,16,0.00,,,0.00,303.000000,,2013-06-20 14:42:00,
2013-06-20 08:53:00,60.0,14.0,-100.00,South,185,6.0,9.0,16,0.00,,,0.00,303.000000,,2013-06-20 14:53:00,
2013-06-20 09:02:00,60.0,14.0,-100.00,South,185,6.0,9.0,16,0.00,,,0.00,303.000000,,2013-06-20 15:02:00,
2013-06-20 09:11:00,60.0,14.0,-100.00,South,185,6.0,9.0,16,0.00,,,0.00,303.000000,,2013-06-20 15:11:00,
2013-06-20 09:33:00,65.0,19.0,-100.00,SSE,158,5.0,9.0,17,0.00,,,0.00,492.000000,,2013-06-20 15:33:00,
2013-06-20 09:43:00,65.0,19.0,-100.00,SSE,158,5.0,9.0,17,0.00,,,0.00,492.000000,,2013-06-20 15:43:00,
2013-06-20 09:53:00,65.0,19.0,-100.00,SSE,158,5.0,9.0,17,0.00,,,0.00,492.000000,,2013-06-20 15:53:00,
2013-06-20 10:01:00,65.0,19.0,-100.00,SSE,158,5.0,9.0,17,0.00,,,0.00,492.000000,,2013-06-20 16:01:00,
2013-06-20 10:11:00,65.0,19.0,-100.00,SSE,158,5.0,9.0,17,0.00,,,0.00,492.000000,,2013-06-20 16:11:00,
2013-06-20 10:33:00,69.0,19.0,-100.00,South,174,8.0,13.0,15,0.00,,,0.00,669.000000,,2013-06-20 16:33:00,
2013-06-20 10:43:00,69.0,19.0,-100.00,South,174,8.0,13.0,15,0.00,,,0.00,669.000000,,2013-06-20 16:43:00,
2013-06-20 10:52:00,69.0,19.0,-100.00,South,174,8.0,13.0,15,0.00,,,0.00,669.000000,,2013-06-20 16:52:00,
2013-06-20 11:01:00,69.0,19.0,-100.00,South,174,8.0,13.0,15,0.00,,,0.00,669.000000,,2013-06-20 17:01:00,
2013-06-20 11:11:00,69.0,19.0,-100.00,South,174,8.0,13.0,15,0.00,,,0.00,669.000000,,2013-06-20 17:11:00,
2013-06-20 11:33:00,72.0,20.0,-100.00,SW,226,7.0,14.0,14,0.00,,,0.00,818.000000,,2013-06-20 17:33:00,
2013-06-20 11:43:00,72.0,20.0,-100.00,SW,226,7.0,14.0,14,0.00,,,0.00,818.000000,,2013-06-20 17:43:00,
2013-06-20 11:53:00,72.0,20.0,-100.00,SW,226,7.0,14.0,14,0.00,,,0.00,818.000000,,2013-06-20 17:53:00,
2013-06-20 12:01:00,72.0,20.0,-100.00,SW,226,7.0,14.0,14,0.00,,,0.00,818.000000,,2013-06-20 18:01:00,
2013-06-20 12:11:00,72.0,20.0,-100.00,SW,226,7.0,14.0,14,0.00,,,0.00,818.000000,,2013-06-20 18:11:00,
2013-06-20 12:33:00,73.0,17.0,-100.00,SSW,213,10.0,20.0,12,0.00,,,0.00,924.000000,,2013-06-20 18:33:00,
2013-06-20 12:43:00,73.0,17.0,-100.00,SSW,213,10.0,20.0,12,0.00,,,0.00,924.000000,,2013-06-20 18:43:00,
2013-06-20 12:53:00,73.0,17.0,-100.00,SSW,213,10.0,20.0,12,0.00,,,0.00,924.000000,,2013-06-20 18:53:00,
2013-06-20 13:01:00,73.0,17.0,-100.00,SSW,213,10.0,20.0,12,0.00,,,0.00,924.000000,,2013-06-20 19:01:00,
2013-06-20 13:11:00,73.0,17.0,-100.00,SSW,213,10.0,20.0,12,0.00,,,0.00,924.000000,,2013-06-20 19:11:00,
2013-06-20 13:34:00,75.0,15.0,-100.00,SSW,203,10.0,19.0,10,0.00,,,0.00,977.000000,,2013-06-20 19:34:00,
2013-06-20 13:43:00,75.0,15.0,-100.00,SSW,203,10.0,19.0,10,0.00,,,0.00,977.000000,,2013-06-20 19:43:00,
2013-06-20 13:52:00,75.0,15.0,-100.00,SSW,203,10.0,19.0,10,0.00,,,0.00,977.000000,,2013-06-20 19:52:00,
2013-06-20 14:02:00,75.0,15.0,-100.00,SSW,203,10.0,19.0,10,0.00,,,0.00,977.000000,,2013-06-20 20:02:00,
2013-06-20 14:11:00,75.0,15.0,-100.00,SSW,203,10.0,19.0,10,0.00,,,0.00,977.000000,,2013-06-20 20:11:00,
2013-06-20 14:43:00,78.0,15.0,-100.00,SW,218,9.0,20.0,9,0.00,,,0.00,974.000000,,2013-06-20 20:43:00,
2013-06-20 14:52:00,78.0,15.0,-100.00,SW,218,9.0,20.0,9,0.00,,,0.00,974.000000,,2013-06-20 20:52:00,
2013-06-20 15:01:00,78.0,15.0,-100.00,SW,218,9.0,20.0,9,0.00,,,0.00,974.000000,,2013-06-20 21:01:00,
2013-06-20 18:11:00,79.0,10.0,-100.00,SSW,203,7.0,21.0,7,0.00,,,0.00,652.000000,,2013-06-21 00:11:00,